Location: Chandrammap?lem
(16.9200°N, 81.0051°E)
Time: 14:44:12
(UTC+00:00)

Cosmos 1371 Rocket - Pass Details

Date: 29 May 2024
Orbit: 751 x 788 km, 74.0° (Epoch: 18 June)

Event Time Altitude Azimuth Distance (km) Brightness Sun altitude
Rises 14:23:12 0° 351° (N) 3,273 7.9 -17.5°
Reaches altitude 10° 14:25:37 10° 354° (N) 2,343 7.0 -18.0°
Maximum altitude 14:30:54 65° 76° (ENE) 858 4.0 -19.1°
Enters shadow 14:33:06 35° 146° (SE) 1,250 4.6 -19.6°
